Location: Forst
(46.9333°N, 15.4333°E)
Time: 06:11:12
(UTC+00:00)

PAYLOAD B - Pass Details

Date: 01 December 2020
Orbit: 849 x 872 km, 99.1° (Epoch: 18 January)

Event Time Altitude Azimuth Distance (km) Brightness Sun altitude
Rises 15:46:54 0° 158° (SSE) 3,441 7.4 -6.2°
Reaches altitude 10° 15:49:16 10° 157° (SSE) 2,505 6.7 -6.5°
Maximum altitude 15:54:50 77° 73° (ENE) 892 4.2 -7.4°
Drops below altitude 10° 16:00:24 10° 348° (NNW) 2,508 6.6 -8.3°
Sets 16:02:47 0° 347° (NNW) 3,446 7.3 -8.6°
